Flag for Germany Weather past 2 weeks in Hannover, Lower Saxony, Germany

Now
41 °F

Passing clouds.


Feels Like: 32 °F
Forecast: 40 / 49 °F
Wind: 18 mph from West

Location: Hannover

Current Time: Mar 30, 2015 at 7:49:38 AM

Latest Report: Mar 30, 2015 at 7:20 AM


Visibility: N/A

Pressure: 29.30 "Hg

Humidity: 81%

Dew point: 36 °F

Location of HannoverLocation

Historic Weather in Hannover — Graph

°F

Hannover temperature yesterday

Maximum temperature yesterday: 52 °F (at 5:20 AM)
Minimum temperature yesterday: 43 °F (at 11:50 PM)
Average temperature yesterday: 49 °F

Past Weeks' High & Low Weather Summary

 TemperatureHumidityPressure
High61 °F (Mar 18, 2:20 PM)100% (Mar 16, 6:20 AM)30.42 "Hg (Mar 16, 6:20 AM)
Low28 °F (Mar 20, 3:50 AM)36% (Mar 18, 2:20 PM)29.06 "Hg (Mar 29, 9:20 PM)
Average43 °F78%30.03 "Hg
* Reported Mar 15 5:20 AM — Mar 30 6:50 AM, Hannover, Weather by CustomWeather, © 2015

Note: Actual official high and low records may vary slightly from our data, if they occured in-between our weather recording intervals... More about our weather records

Advertising

Hannover weather history for previous 24 hours

 ConditionsComfort  
Time TempWeatherWind HumidityBarometerVisibility
6:50 AM
Mon, Mar 30
39 °FPassing clouds.17 mph87%29.30 "HgN/A
6:20 AM41 °FSprinkles. Passing clouds.28 mph81%29.27 "HgN/A
5:50 AM41 °FSprinkles. Passing clouds.23 mph87%29.27 "HgN/A
5:20 AM43 °FPassing clouds.12 mph87%29.24 "HgN/A
4:50 AM41 °FLight rain. Passing clouds.17 mph93%29.24 "HgN/A
4:20 AM41 °FLight rain. Passing clouds.23 mph93%29.24 "HgN/A
3:50 AM41 °FLight rain. Passing clouds.23 mph93%29.27 "HgN/A
3:20 AM43 °FPassing clouds.24 mph87%29.24 "HgN/A
2:50 AM43 °FPassing clouds.21 mph87%29.24 "HgN/A
2:20 AM43 °FLight rain. Passing clouds.21 mph87%29.24 "HgN/A
1:50 AM43 °FPartly cloudy.24 mph87%29.24 "HgN/A
1:20 AM43 °FLight rain. Passing clouds.22 mph87%29.21 "HgN/A
12:50 AM43 °FPassing clouds.25 mph87%29.21 "HgN/A
12:20 AM43 °FLight rain. Passing clouds.24 mph87%29.18 "HgN/A
11:50 PM
Sun, Mar 29
43 °FLight rain. Passing clouds.32 mph87%29.18 "HgN/A
11:20 PM45 °FPassing clouds.32 mph87%29.15 "HgN/A
10:50 PM46 °FPassing clouds.35 mph82%29.12 "HgN/A
10:20 PM50 °FPassing clouds.25 mph76%29.09 "HgN/A
9:50 PM52 °FPassing clouds.22 mph77%29.06 "HgN/A
9:20 PM50 °FSprinkles. Passing clouds.17 mph88%29.06 "HgN/A
8:50 PM52 °FPassing clouds.18 mph88%29.09 "HgN/A
8:20 PM50 °FLight rain. Partly sunny.18 mph94%29.09 "HgN/A
7:50 PM50 °FLight rain. Partly sunny.15 mph94%29.12 "HgN/A
7:20 PM50 °FLight rain. Mostly cloudy.15 mph94%29.15 "HgN/A
6:50 PM50 °FLight rain. Mostly cloudy.14 mph88%29.18 "HgN/A
6:20 PM48 °FLight rain. Mostly cloudy.14 mph94%29.21 "HgN/A
5:50 PM48 °FLight rain. Cloudy.10 mph94%29.24 "HgN/A
5:20 PM48 °FLight rain. Partly sunny.9 mph94%29.27 "HgN/A
4:50 PM48 °FLight rain. Partly sunny.9 mph94%29.30 "HgN/A
4:20 PM48 °FLight rain. More clouds than sun.12 mph94%29.33 "HgN/A
3:50 PM48 °FLight rain. More clouds than sun.13 mph94%29.36 "HgN/A
3:20 PM48 °FLight rain. Mostly cloudy.10 mph94%29.39 "HgN/A
2:50 PM48 °FLight rain. More clouds than sun.10 mph94%29.42 "HgN/A
2:20 PM48 °FLight rain. Partly sunny.9 mph94%29.45 "HgN/A
1:50 PM48 °FLight rain. Broken clouds.10 mph94%29.45 "HgN/A
1:20 PM48 °FDrizzle. Broken clouds.14 mph87%29.47 "HgN/A
12:50 PM50 °FDrizzle. Partly sunny.16 mph82%29.47 "HgN/A
12:20 PM50 °FDrizzle. Partly sunny.14 mph88%29.50 "HgN/A
11:50 AM48 °FDrizzle. Partly sunny.15 mph87%29.50 "Hg5 mi
11:20 AM48 °FDrizzle. Broken clouds.15 mph94%29.53 "Hg4 mi
10:50 AM48 °FDrizzle. Broken clouds.16 mph94%29.53 "HgN/A
10:20 AM48 °FDrizzle. Broken clouds.14 mph94%29.53 "Hg2 mi
9:50 AM50 °FDrizzle. Broken clouds.17 mph82%29.56 "HgN/A
9:20 AM50 °FBroken clouds.16 mph88%29.56 "HgN/A
8:50 AM48 °FDrizzle. Broken clouds.14 mph94%29.56 "HgN/A
8:20 AM50 °FDrizzle. Partly sunny.20 mph82%29.56 "HgN/A
7:50 AM50 °FPassing clouds.17 mph82%29.56 "HgN/A
7:20 AM50 °FPartly cloudy.18 mph82%29.56 "HgN/A
Weather by CustomWeather, © 2015

See weather overviewHow to use our weather pages